| time (UTC) | temp C | wind direction | speed KPH | gust KPH | rain 1hr cm | rain 24hr cm | rain mn cm | humidity % | barometer mb |
| 20260507105915 | 12 | 288 | 0.0 | 0.0 | 0.00 | 0.00 | 0.00 | 81 | 1020.6 |
| 20260507104847 | 12 | 288 | 0.0 | 0.0 | 0.00 | 0.00 | 0.00 | 82 | 1020.6 |
| 20260507103906 | 12 | 288 | 0.0 | 0.0 | 0.00 | 0.00 | 0.00 | 82 | 1020.6 |
| 20260507102859 | 12 | 288 | 0.0 | 0.0 | 0.00 | 0.00 | 0.00 | 81 | 1020.6 |
| 20260507101920 | 12 | 288 | 0.0 | 0.0 | 0.00 | 0.00 | 0.00 | 81 | 1020.7 |
| 20260507100849 | 12 | 289 | 0.0 | 0.0 | 0.00 | 0.00 | 0.00 | 81 | 1020.8 |
| 20260507095847 | 12 | 281 | 0.0 | 0.0 | 0.00 | 0.00 | 0.00 | 81 | 1020.8 |
| 20260507093659 | 12 | 277 | 0.0 | 0.0 | 0.00 | 0.00 | 0.00 | 81 | 1021.0 |
| 20260507092707 | 12 | 276 | 0.0 | 0.0 | 0.00 | 0.00 | 0.00 | 82 | 1021.1 |
| 20260507091648 | 12 | 285 | 0.0 | 0.0 | 0.00 | 0.00 | 0.00 | 81 | 1021.2 |
| 20260507090646 | 12 | 285 | 0.0 | 0.0 | 0.00 | 0.00 | 0.00 | 81 | 1021.2 |
| 20260507085629 | 12 | 10 | 0.0 | 0.0 | 0.00 | 0.00 | 0.00 | 81 | 1021.3 |
| 20260507084635 | 12 | 179 | 0.0 | 0.0 | 0.00 | 0.00 | 0.00 | 81 | 1021.2 |
| 20260507083626 | 12 | 340 | 0.0 | 0.0 | 0.00 | 0.00 | 0.00 | 81 | 1021.2 |
| 20260507082556 | 12 | 297 | 0.0 | 0.0 | 0.00 | 0.00 | 0.00 | 81 | 1021.1 |
| 20260507080441 | 12 | 281 | 0.0 | 0.0 | 0.00 | 0.00 | 0.00 | 81 | 1021.2 |
| 20260507075410 | 12 | 271 | 0.0 | 0.0 | 0.00 | 0.00 | 0.00 | 81 | 1021.2 |
| 20260507074407 | 12 | 345 | 0.0 | 0.0 | 0.00 | 0.00 | 0.00 | 81 | 1021.2 |
| 20260507073359 | 12 | 275 | 0.0 | 0.0 | 0.00 | 0.00 | 0.00 | 81 | 1021.2 |
| 20260507072404 | 11 | 281 | 0.0 | 0.0 | 0.00 | 0.00 | 0.00 | 81 | 1021.2 |
| 20260507070250 | 11 | 279 | 0.0 | 3.2 | 0.00 | 0.00 | 0.00 | 81 | 1021.0 |
| 20260507065314 | 11 | 252 | 0.0 | 3.2 | 0.00 | 0.00 | 0.00 | 81 | 1021.1 |
| 20260507064316 | 11 | 354 | 0.0 | 1.6 | 0.00 | 0.00 | 0.00 | 81 | 1021.1 |
| 20260507063247 | 11 | 269 | 0.0 | 1.6 | 0.00 | 0.00 | 0.00 | 81 | 1021.1 |
| 20260507062225 | 11 | 283 | 0.0 | 0.0 | 0.00 | 0.00 | 0.00 | 81 | 1021.1 |
| 20260507061203 | 11 | 274 | 0.0 | 0.0 | 0.00 | 0.00 | 0.00 | 81 | 1021.1 |
| 20260507060221 | 11 | 280 | 0.0 | 1.6 | 0.00 | 0.00 | 0.00 | 81 | 1021.0 |
| 20260507055230 | 11 | 281 | 0.0 | 0.0 | 0.00 | 0.00 | 0.00 | 81 | 1021.1 |
| 20260507054240 | 11 | 283 | 0.0 | 3.2 | 0.00 | 0.00 | 0.00 | 80 | 1020.9 |
| 20260507053209 | 11 | 189 | 0.0 | 8.0 | 0.00 | 0.00 | 0.00 | 80 | 1021.0 |
| 20260507052137 | 11 | 295 | 0.0 | 8.0 | 0.00 | 0.00 | 0.00 | 80 | 1021.0 |
| 20260507051201 | 11 | 285 | 0.0 | 1.6 | 0.00 | 0.00 | 0.00 | 80 | 1021.0 |
| 20260507050131 | 12 | 300 | 0.0 | 3.2 | 0.00 | 0.00 | 0.00 | 79 | 1021.0 |
| 20260507045156 | 12 | 285 | 0.0 | 0.0 | 0.00 | 0.00 | 0.00 | 79 | 1021.0 |
| 20260507044127 | 12 | 276 | 0.0 | 8.0 | 0.00 | 0.00 | 0.00 | 80 | 1021.0 |
| 20260507043116 | 12 | 271 | 0.0 | 0.0 | 0.00 | 0.00 | 0.00 | 79 | 1020.8 |
| 20260507035906 | 12 | 286 | 0.0 | 0.0 | 0.00 | 0.00 | 0.00 | 78 | 1020.4 |
| 20260507034846 | 12 | 259 | 0.0 | 8.0 | 0.00 | 0.00 | 0.00 | 78 | 1020.3 |
| 20260507031556 | 13 | 282 | 1.6 | 6.4 | 0.00 | 0.00 | 0.00 | 76 | 1019.9 |
| 20260507030525 | 14 | 300 | 0.0 | 4.8 | 0.00 | 0.00 | 0.00 | 75 | 1019.8 |
| 20260507024416 | 15 | 259 | 0.0 | 4.8 | 0.00 | 0.00 | 0.00 | 73 | 1019.6 |
| 20260507023348 | 15 | 273 | 0.0 | 3.2 | 0.00 | 0.00 | 0.00 | 72 | 1019.7 |
| 20260507020100 | 16 | 300 | 0.0 | 1.6 | 0.00 | 0.00 | 0.00 | 69 | 1019.6 |
| 20260507015041 | 17 | 248 | 1.6 | 8.0 | 0.00 | 0.00 | 0.00 | 67 | 1019.7 |
| 20260507014019 | 17 | 282 | 1.6 | 6.4 | 0.00 | 0.00 | 0.00 | 66 | 1019.8 |
| 20260507012959 | 17 | 281 | 1.6 | 6.4 | 0.00 | 0.00 | 0.00 | 65 | 1019.7 |
| 20260507012012 | 18 | 259 | 1.6 | 6.4 | 0.00 | 0.00 | 0.00 | 64 | 1019.7 |
| 20260507005957 | 19 | 284 | 1.6 | 8.0 | 0.00 | 0.00 | 0.00 | 62 | 1019.7 |
| 20260507004942 | 20 | 269 | 1.6 | 8.0 | 0.00 | 0.00 | 0.00 | 62 | 1019.6 |
| 20260507003931 | 19 | 271 | 1.6 | 8.0 | 0.00 | 0.00 | 0.00 | 62 | 1019.6 |
| 20260507002928 | 20 | 293 | 1.6 | 6.4 | 0.00 | 0.00 | 0.00 | 60 | 1019.6 |
| 20260507001932 | 20 | 290 | 1.6 | 6.4 | 0.00 | 0.00 | 0.00 | 61 | 1019.4 |
| 20260507000931 | 20 | 269 | 1.6 | 8.0 | 0.00 | 0.00 | 0.00 | 61 | 1019.4 |
| 20260506235915 | 21 | 240 | 1.6 | 8.0 | 0.00 | 0.00 | 0.00 | 59 | 1019.4 |
| 20260506234935 | 21 | 262 | 0.0 | 6.4 | 0.00 | 0.00 | 0.00 | 59 | 1019.4 |
| 20260506233945 | 21 | 312 | 1.6 | 8.0 | 0.00 | 0.00 | 0.00 | 59 | 1019.3 |
| 20260506232957 | 22 | 281 | 0.0 | 9.7 | 0.00 | 0.00 | 0.00 | 58 | 1019.3 |
| 20260506230842 | 22 | 90 | 1.6 | 6.4 | 0.00 | 0.00 | 0.00 | 55 | 1019.4 |
| 20260506223612 | 22 | 11 | 0.0 | 3.2 | 0.00 | 0.00 | 0.00 | 55 | 1019.6 |
| 20260506222618 | 22 | 285 | 0.0 | 4.8 | 0.00 | 0.00 | 0.00 | 56 | 1019.7 |
| 20260506221634 | 22 | 267 | 0.0 | 4.8 | 0.00 | 0.00 | 0.00 | 55 | 1019.8 |
| 20260506220643 | 22 | 193 | 0.0 | 4.8 | 0.00 | 0.00 | 0.00 | 59 | 1019.8 |
| 20260506215634 | 21 | 350 | 0.0 | 3.2 | 0.00 | 0.00 | 0.00 | 58 | 1020.0 |
| 20260506214605 | 22 | 266 | 0.0 | 3.2 | 0.00 | 0.00 | 0.00 | 58 | 1020.0 |
| 20260506213627 | 21 | 324 | 0.0 | 3.2 | 0.00 | 0.00 | 0.00 | 60 | 1019.9 |
| 20260506212635 | 21 | 131 | 0.0 | 3.2 | 0.00 | 0.00 | 0.00 | 61 | 1020.0 |
| 20260506211636 | 20 | 356 | 1.6 | 3.2 | 0.00 | 0.00 | 0.00 | 63 | 1020.0 |
| 20260506210658 | 20 | 150 | 0.0 | 3.2 | 0.00 | 0.00 | 0.00 | 64 | 1020.1 |
| 20260506205722 | 19 | 347 | 0.0 | 9.7 | 0.00 | 0.00 | 0.00 | 65 | 1020.2 |
| 20260506204721 | 20 | 136 | 1.6 | 9.7 | 0.00 | 0.00 | 0.00 | 63 | 1020.3 |
| 20260506203654 | 19 | 176 | 1.6 | 6.4 | 0.00 | 0.00 | 0.00 | 65 | 1020.4 |
| 20260506202701 | 19 | 224 | 1.6 | 4.8 | 0.00 | 0.00 | 0.00 | 67 | 1020.5 |
| 20260506201659 | 18 | 230 | 0.0 | 4.8 | 0.00 | 0.00 | 0.00 | 69 | 1020.5 |
| 20260506200644 | 18 | 285 | 0.0 | 12.9 | 0.00 | 0.00 | 0.00 | 68 | 1020.5 |
| 20260506195628 | 19 | 199 | 1.6 | 12.9 | 0.00 | 0.00 | 0.00 | 68 | 1020.5 |
| 20260506194650 | 18 | 290 | 0.0 | 8.0 | 0.00 | 0.00 | 0.00 | 70 | 1020.6 |
| 20260506193702 | 18 | 285 | 1.6 | 8.0 | 0.00 | 0.00 | 0.00 | 70 | 1020.6 |
| 20260506192649 | 17 | 171 | 1.6 | 9.7 | 0.00 | 0.00 | 0.00 | 72 | 1020.6 |
| 20260506191616 | 17 | 260 | 1.6 | 11.3 | 0.00 | 0.00 | 0.00 | 72 | 1020.7 |
| 20260506190617 | 17 | 207 | 3.2 | 11.3 | 0.00 | 0.00 | 0.00 | 72 | 1020.8 |
| 20260506185628 | 17 | 284 | 0.0 | 3.2 | 0.00 | 0.00 | 0.00 | 73 | 1020.9 |
| 20260506184634 | 16 | 291 | 1.6 | 8.0 | 0.00 | 0.00 | 0.00 | 75 | 1021.0 |
| 20260506182511 | 16 | 164 | 3.2 | 12.9 | 0.00 | 0.00 | 0.00 | 76 | 1020.9 |
| 20260506181518 | 16 | 164 | 3.2 | 9.7 | 0.00 | 0.00 | 0.00 | 76 | 1021.0 |
| 20260506180451 | 15 | 204 | 1.6 | 8.0 | 0.00 | 0.00 | 0.00 | 78 | 1020.8 |
| 20260506175449 | 15 | 229 | 0.0 | 4.8 | 0.00 | 0.00 | 0.00 | 80 | 1020.8 |
| 20260506174420 | 14 | 155 | 0.0 | 4.8 | 0.00 | 0.00 | 0.00 | 80 | 1020.9 |
| 20260506173430 | 14 | 163 | 0.0 | 3.2 | 0.00 | 0.00 | 0.00 | 80 | 1020.9 |
| 20260506172426 | 14 | 312 | 0.0 | 0.0 | 0.00 | 0.00 | 0.00 | 81 | 1021.0 |
| 20260506171414 | 14 | 79 | 0.0 | 0.0 | 0.00 | 0.00 | 0.00 | 81 | 1020.8 |
| 20260506170405 | 13 | 337 | 0.0 | 0.0 | 0.00 | 0.00 | 0.00 | 82 | 1020.7 |
| 20260506165426 | 13 | 212 | 0.0 | 0.0 | 0.00 | 0.00 | 0.00 | 82 | 1020.9 |
| 20260506164400 | 13 | 287 | 0.0 | 6.4 | 0.00 | 0.00 | 0.00 | 83 | 1021.0 |
| 20260506163350 | 13 | 152 | 0.0 | 4.8 | 0.00 | 0.00 | 0.00 | 83 | 1020.8 |
| 20260506162335 | 13 | 284 | 0.0 | 1.6 | 0.00 | 0.00 | 0.00 | 84 | 1021.0 |
| 20260506161317 | 13 | 193 | 0.0 | 6.4 | 0.00 | 0.00 | 0.00 | 84 | 1020.6 |
| 20260506160304 | 12 | 195 | 1.6 | 4.8 | 0.00 | 0.00 | 0.00 | 83 | 1020.3 |
| 20260506155327 | 12 | 175 | 0.0 | 1.6 | 0.00 | 0.00 | 0.00 | 84 | 1020.6 |
| 20260506154310 | 12 | 219 | 0.0 | 1.6 | 0.00 | 0.00 | 0.00 | 84 | 1020.8 |
| 20260506153324 | 12 | 283 | 0.0 | 1.6 | 0.00 | 0.00 | 0.00 | 84 | 1020.9 |
| 20260506152306 | 11 | 267 | 1.6 | 11.3 | 0.00 | 0.00 | 0.00 | 85 | 1021.0 |
| 20260506151234 | 11 | 291 | 1.6 | 8.0 | 0.00 | 0.00 | 0.00 | 84 | 1021.1 |
| 20260506145149 | 12 | 275 | 0.0 | 1.6 | 0.00 | 0.00 | 0.00 | 83 | 1021.0 |
| 20260506144158 | 12 | 251 | 0.0 | 0.0 | 0.00 | 0.00 | 0.00 | 84 | 1020.5 |
| 20260506143159 | 12 | 166 | 0.0 | 0.0 | 0.00 | 0.00 | 0.00 | 84 | 1020.3 |
| 20260506142136 | 12 | 200 | 0.0 | 0.0 | 0.00 | 0.00 | 0.00 | 84 | 1020.0 |
| 20260506141113 | 11 | 205 | 0.0 | 0.0 | 0.00 | 0.00 | 0.00 | 86 | 1019.9 |
| 20260506140111 | 11 | 167 | 0.0 | 0.0 | 0.00 | 0.00 | 0.00 | 87 | 1019.9 |
| 20260506135133 | 11 | 142 | 0.0 | 0.0 | 0.00 | 0.00 | 0.00 | 87 | 1020.0 |
| 20260506134147 | 11 | 110 | 0.0 | 0.0 | 0.00 | 0.00 | 0.00 | 88 | 1019.9 |
| 20260506132108 | 11 | 179 | 0.0 | 0.0 | 0.00 | 0.00 | 0.00 | 88 | 1019.9 |
| 20260506131059 | 11 | 222 | 0.0 | 0.0 | 0.00 | 0.00 | 0.00 | 87 | 1019.8 |
| 20260506130104 | 11 | 222 | 0.0 | 0.0 | 0.00 | 0.00 | 0.00 | 87 | 1019.6 |
| 20260506125049 | 11 | 191 | 0.0 | 0.0 | 0.00 | 0.00 | 0.00 | 86 | 1019.6 |
| 20260506124102 | 11 | 182 | 0.0 | 0.0 | 0.00 | 0.00 | 0.00 | 86 | 1019.6 |
| 20260506123119 | 11 | 288 | 0.0 | 0.0 | 0.00 | 0.00 | 0.00 | 86 | 1019.6 |
| 20260506122046 | 11 | 288 | 0.0 | 0.0 | 0.00 | 0.00 | 0.00 | 86 | 1019.6 |
| 20260506121035 | 11 | 55 | 0.0 | 1.6 | 0.00 | 0.00 | 0.00 | 86 | 1019.5 |
| 20260506120010 | 11 | 286 | 0.0 | 1.6 | 0.00 | 0.00 | 0.00 | 86 | 1019.4 |
| 20260506115001 | 11 | 285 | 0.0 | 3.2 | 0.00 | 0.00 | 0.00 | 86 | 1019.4 |
| 20260506113954 | 11 | 319 | 0.0 | 0.0 | 0.00 | 0.00 | 0.00 | 87 | 1019.0 |
| 20260506112939 | 11 | 281 | 0.0 | 0.0 | 0.00 | 0.00 | 0.00 | 87 | 1019.0 |
| 20260506111922 | 11 | 263 | 0.0 | 0.0 | 0.00 | 0.00 | 0.00 | 87 | 1018.8 |
| 20260506110914 | 11 | 300 | 0.0 | 0.0 | 0.00 | 0.00 | 0.00 | 87 | 1018.7 |